Regional Weather Roundup
Issued by NWS

Home | Current Version | Previous Version | Graphics & Text | Print | Product List | Glossary On
Versions: 1 2 3 4 5 6 7 8 9 10 11 12 13 14 15 16 17 18 19 20 21 22 23 24 25 26 27 28 29 30 31 32 33 34 35 36 37 38 39 40 41 42 43 44 45 46 47 48 49 50
000
ASUS43 KMPX 170810
RWRMN
WEATHER ROUNDUP FOR MINNESOTA
NATIONAL WEATHER SERVICE TWIN CITIES/CHANHASSEN MN
300 AM CDT TUE OCT 17 2017


NOTE: "FAIR" INDICATES FEW OR NO CLOUDS BELOW 12,000 FEET WITH NO
SIGNIFICANT WEATHER AND/OR OBSTRUCTIONS TO VISIBILITY. N/A MEANS
CURRENT SKY AND/OR WEATHER CONDITIONS ARE NOT AVAILABLE.

MNZ060>063-068>070-170900-
   Twin Cities Metro

CITY           SKY/WX    TMP DP  RH WIND       PRES   REMARKS
TWIN CITIES    CLEAR     52  41  66 SW3       29.98R
ST PAUL        PTCLDY    46  43  89 CALM      29.99R
CRYSTAL        CLEAR     46  38  73 S3        29.96S
BLAINE         CLEAR     48  39  71 S3        29.96S
LAKEVILLE      CLEAR     48  39  71 CALM      29.99R
EDEN PRAIRIE   CLEAR     48  40  73 SW7       29.97R
SOUTH ST PAUL  CLOUDY    45  40  82 CALM      29.97S
LAKE ELMO      FAIR      41  37  87 S3        29.98S
$$
MNZ001>005-007-008-013>017-022>024-027-028-170900-
   Northwest Minnesota

CITY           SKY/WX    TMP DP  RH WIND       PRES   REMARKS
BEMIDJI        CLEAR     40  34  79 SW3       29.92S
HALLOCK        CLOUDY    37  30  75 SE7       29.87F
ROSEAU           N/A     45  36  70 SW3       29.89S
WARROAD        CLOUDY    43  37  81 SW5       29.89S
THIEF RVR FALL CLOUDY    44  34  67 CALM      29.91S
CROOKSTON      CLOUDY    36  30  80 S6        29.92S
FOSSTON        CLOUDY    37  32  81 S7        29.93S
DETROIT LAKES  CLOUDY    43  41  93 CALM      29.95S
MOORHEAD       CLOUDY    39  34  81 CALM      29.94S
PARK RAPIDS    CLEAR     39  35  86 CALM      29.94R
MAHNOMEN       FAIR      42  36  80 S7        29.93S
$$
MNZ006-009>011-018-025>026-170900-
   North Central Minnesota

CITY           SKY/WX    TMP DP  RH WIND       PRES   REMARKS
BAUDETTE       CLEAR     47  35  63 W5        29.89R
FLAG ISLAND    CLEAR     48  36  61 CALM      29.85S
INTL FALLS     CLEAR     41  33  73 W5        29.88R
WASKISH        CLOUDY    39  39 100 CALM      29.91R
BIG FORK       CLEAR     37  34  87 CALM      29.90S
LONGVILLE      CLEAR     37  37 100 CALM      29.93R
GRAND RAPIDS   CLEAR     47  38  71 W3        29.93R
CRANE LAKE     CLEAR     36  34  93 CALM      29.89R
ORR            CLEAR     43  36  75 CALM      29.87R
COOK           CLEAR     45  37  76 CALM      29.89S
WALKER         FAIR      45  35  68 W3        29.92S
$$
MNZ012-019>021-037-170900-
   Northeast Minnesota

CITY           SKY/WX    TMP DP  RH WIND       PRES   REMARKS
DULUTH         CLOUDY    45  38  76 W9        29.91R
ELY            PTCLDY    45  36  70 SW3       29.88R
HIBBING        CLOUDY    32  31  96 CALM      29.90R
EVELETH        CLOUDY    37  37 100 CALM      29.90F
DULUTH HARBOR  CLOUDY    52  43  71 S9        29.91S
TWO HARBORS    CLOUDY    52  41  66 W5        29.88S
SILVER BAY     CLOUDY    50  39  66 NW3       29.86S
GRAND MARAIS     N/A     53  40  61 NW8       29.83S
G MARAIS ARPRT CLEAR     45  34  65 W6        29.85S
$$
MNZ029>031-032-039>041-046>048-054>057-064-170900-
   West Central Minnesota

CITY           SKY/WX    TMP DP  RH WIND       PRES   REMARKS
FERGUS FALLS   CLOUDY    43  39  87 CALM      29.97R
WHEATON        CLEAR     45  37  76 SW3       29.97S
MORRIS         CLEAR     39  37  93 CALM      29.95S
ALEXANDRIA     CLOUDY    42  39  89 NW3       29.96S
ELBOW LAKE     FAIR      42  41  95 CALM      29.96S
WADENA         CLOUDY    39  37  93 W3        29.94S
GLENWOOD       CLEAR     45  39  81 SW6       29.96S
APPLETON       CLEAR     45  39  81 SW5       29.96S
BENSON         CLEAR     37  36  93 CALM      29.98S
ORTONVILLE     CLEAR     46  39  76 W6        29.97S
MADISON        CLEAR     46  41  81 W7        29.98S
WILLMAR        FAIR      43  39  87 SW3       29.98S
$$
MNZ033>034-036-042>043-049>051-058-059-170900-
   Central Minnesota

CITY           SKY/WX    TMP DP  RH WIND       PRES   REMARKS
ST CLOUD       CLEAR     38  37  97 SE3       29.95S
SAUK CENTRE    FAIR      44  39  82 CALM      29.96S
PAYNESVILLE    CLEAR     41  39  91 W3        29.97R
AITKIN         CLEAR     36  34  93 CALM      29.92S
PINE RIVER     CLEAR     36  34  93 CALM      29.97S
BRAINERD       CLEAR     42  38  85 CALM      29.94S
STAPLES        CLOUDY    39  37  93 CALM      29.95R
LONG PRAIRIE   FAIR      39  36  87 CALM      29.95S
LITTLE FALLS   CLOUDY    37  34  87 CALM      29.94F
LITCHFIELD     CLOUDY    48  41  76 SW3       29.97S
BUFFALO        CLEAR     43  36  77 CALM      29.98R
MAPLE LAKE     CLEAR     43  41  92 CALM      29.97S
HUTCHINSON     CLOUDY    41  39  92 CALM      29.99R
$$
MNZ037-044-045-052-053-170900-
   East Central Minnesota

CITY           SKY/WX    TMP DP  RH WIND       PRES   REMARKS
PRINCETON      CLEAR     39  37  93 CALM      29.95S
MORA           CLEAR     36  34  93 CALM      29.96S
CAMBRIDGE      CLEAR     43  39  87 CALM      29.95S
RUSH CITY      CLEAR     42  38  85 CALM      29.95S
MOOSE LAKE     PTCLDY    36  34  93 CALM      29.92R
HINCKLEY       FAIR      36  36 100 CALM      29.94S
CLOQUET        CLOUDY    46  36  66 W6        29.91S
MCGREGOR       CLEAR     43  37  81 CALM      29.93S
$$
MNZ071>073-080-081-089-090-097-098-170900-
   Southwest Minnesota

CITY           SKY/WX    TMP DP  RH WIND       PRES   REMARKS
MONTEVIDEO     CLEAR     48  39  71 W5        29.98S
GRANITE FALLS  CLEAR     43  39  86 SW6       30.00R
CANBY          CLEAR     51  40  66 SW6       30.00R
MARSHALL       CLEAR     53  40  61 W8        29.99R
REDWOOD FALLS  CLEAR     46  38  73 SW5       29.99R
OLIVIA         CLEAR     41  37  87 S3        29.98R
PIPESTONE      CLEAR     46  37  71 CALM      30.03S
WORTHINGTON    CLEAR     50  38  63 SW6       30.04R
JACKSON        CLEAR     50  37  62 SW8       30.03S
TRACY          CLEAR     53  41  64 SW9       30.00S
SLAYTON        CLEAR     51  39  64 SW5       30.03R
$$
MNZ065>067-074>077-082>085-091>093-170900-
   South Central Minnesota

CITY           SKY/WX    TMP DP  RH WIND       PRES   REMARKS
MANKATO        CLEAR     48  40  73 S5        30.01R
NEW ULM          N/A     45  37  76 SW5       29.99S
ST JAMES       CLEAR     48  39  71 SW5       30.02R
FAIRMONT       CLEAR     51  41  68 SW12      30.03R
GLENCOE        CLEAR     47  40  77 SW5       29.97S
FARIBAULT      CLEAR     50  39  66 S5        30.01R
OWATONNA       CLEAR     52  41  66 SW7       30.02R
WASECA         CLEAR     50  39  66 SW6       30.03R
ALBERT LEA     CLEAR     55  43  62 SW9       30.03R
$$
MNZ078>079-086>088-094>096-170900-
   Southeast Minnesota

CITY           SKY/WX    TMP DP  RH WIND       PRES   REMARKS
ROCHESTER      CLEAR     51  40  65 SW14      30.03S
RED WING       CLOUDY    45  37  76 CALM      29.98S
STANTON        CLEAR     51  40  66 SW5       29.98S
DODGE CENTER   CLEAR     48  39  71 SW9       30.02S
WINONA         CLEAR     55  39  54 W5        30.02S
AUSTIN         CLEAR     46  37  71 S5        30.04R
PRESTON        CLEAR     50  39  65 SW12      30.04S
$$
ABBREVIATIONS USED IN REMARKS
   TC - TEMPERATURES IN CELSIUS
  WCI - WIND CHILL INDEX
   HX - HEAT INDEX
  VSB - VISIBILITY
$$




USA.gov is the U.S. government's official web portal to all federal, state and local government web resources and services.